Simultaneous Nadir Overpasses (SNOs) Predictions

Prediction of SNOs between GOES-17 and AQUA Satellite Orbit:

Table of predicted SNOs for the next 14.0 days since TLE Epoch: 6/20/2020
Index Date Time (GOES-17) GOES-17 Lat,Lon AQUA Lat,Lon Distance(km) Time Diff (sec)
1 06/20/2020 10:51:44 0.01,-137.20 0.31,-138.63 162.18 80
2 06/22/2020 10:36:53 0.00,-137.21 -0.35,-135.68 174.27 80
3 06/22/2020 23:00:56 -0.00,-137.21 -0.81,-140.86 416.00 80
4 06/24/2020 22:48:45 -0.00,-137.20 -0.14,-137.91 80.27 80
5 06/26/2020 22:33:53 -0.00,-137.19 0.47,-134.95 255.14 80
6 06/27/2020 10:57:48 0.01,-137.19 0.61,-140.11 331.54 80
7 06/29/2020 10:42:56 0.00,-137.17 0.00,-137.15 3.19 80
8 07/01/2020 10:30:45 -0.00,-137.15 -0.61,-134.18 337.02 80
9 07/01/2020 22:52:08 0.00,-137.15 -0.47,-139.38 253.83 80
10 07/03/2020 22:42:36 0.01,-137.12 0.15,-136.42 79.33 80




NCC Satellite Simultaneous Nadir Overpasses (SNOs) Prediction Service
